1486782001.03,54370,9.75,73734.3,-9.39,-12.07,-12.71,0,*57
1486782002.27,54371,9.75,73732.3,-9.39,-12.03,-12.61,0,*53
1486782003.5,54372,9.75,73728.8,-9.39,-12.03,-12.61,0,*50
1486782004.77,54373,9.75,73734.0,-9.39,-11.97,-12.71,0,*5E
1486782006.01,54374,9.75,73734.0,-9.39,-12.03,-12.57,0,*53
1486782007.27,54375,9.75,73734.5,-9.39,-11.97,-12.57,0,*5C
1486782008.53,54376,9.75,73732.8,-9.39,-11.97,-12.61,0,*5A
1486782009.79,54377,9.75,73734.5,-9.39,-11.97,-12.61,0,*5B
1486782011.03,54378,9.75,73734.8,-9.39,-12.03,-12.61,0,*5A
1486782012.33,54379,9.75,73732.0,-9.41,-12.07,-12.75,0,*55
1486782013.6,54380,9.75,73734.5,-9.39,-12.07,-12.71,0,*58
1486782014.87,54381,9.75,73738.3,-9.39,-12.07,-12.71,0,*59
1486782016.14,54382,9.75,73736.0,-9.39,-12.07,-12.71,0,*5A
1486782017.44,54383,9.75,73732.0,-9.41,-12.11,-12.75,0,*57
1486782018.71,54384,9.75,73736.0,-9.39,-12.07,-12.71,0,*5C
1486782019.98,54385,9.75,73740.0,-9.39,-12.15,-12.71,0,*5E
1486782021.25,54386,9.75,73736.0,-9.39,-12.07,-12.71,0,*5E
1486782022.51,54387,9.75,73736.8,-9.39,-12.15,-12.61,0,*5D
1486782023.79,54388,9.75,73732.8,-9.39,-12.07,-12.71,0,*50
1486782025.06,54389,9.75,73734.0,-9.39,-12.15,-12.71,0,*52
1486782026.33,54390,9.75,73734.3,-9.39,-12.07,-12.71,0,*59
1486782027.62,54391,9.75,73738.0,-9.41,-12.11,-12.65,0,*55
1486782028.92,54392,9.75,73734.0,-9.37,-12.07,-12.71,0,*55
1486782030.19,54393,9.75,73734.8,-9.39,-12.07,-12.71,0,*5A
1486782031.45,54394,9.75,73734.5,-9.39,-12.07,-12.61,0,*5C
1486782032.72,54395,9.75,73738.0,-9.39,-12.07,-12.71,0,*5C
1486782033.99,54396,9.75,73732.5,-9.39,-12.15,-12.71,0,*5C
1486782035.29,54397,9.75,73734.0,-9.41,-12.11,-12.75,0,*52
1486782036.56,54398,9.75,73734.0,-9.39,-12.07,-12.71,0,*51
1486782037.83,54399,9.75,73734.5,-9.39,-11.97,-12.61,0,*5B
1486782039.09,54400,9.75,73734.0,-9.39,-11.97,-12.71,0,*5D
1486782040.39,54401,9.75,73732.3,-9.41,-12.07,-12.75,0,*5D
1486782041.69,54402,9.75,73732.3,-9.41,-12.07,-12.75,0,*5E
1486782042.99,54403,9.75,73734.8,-9.41,-12.07,-12.75,0,*5F
1486782044.28,54404,9.75,73734.5,-9.41,-12.07,-12.65,0,*59
1486782045.54,54405,9.75,73732.8,-9.41,-12.03,-12.65,0,*5C
1486782046.84,54406,9.75,73738.3,-9.41,-12.07,-12.75,0,*5A
1486782048.11,54407,9.75,73736.0,-9.39,-12.07,-12.61,0,*51
1486782049.4,54408,9.75,73736.3,-9.41,-12.11,-12.75,0,*53
1486782050.68,54409,9.75,73734.5,-9.41,-12.21,-12.65,0,*50
1486782051.97,54410,9.75,73738.5,-9.41,-12.11,-12.75,0,*5A
1486782053.26,54411,9.75,73734.0,-9.41,-12.11,-12.65,0,*5A
1486782054.54,54412,9.75,73732.3,-9.41,-12.21,-12.75,0,*5B
1486782055.82,54413,9.75,73732.5,-9.41,-12.21,-12.75,0,*5A
1486782057.12,54414,9.75,73732.8,-9.41,-12.11,-12.75,0,*5E
1486782058.42,54415,9.75,73734.5,-9.41,-12.11,-12.75,0,*5F
1486782059.72,54416,9.75,73736.5,-9.41,-12.11,-12.75,0,*5C
1486782060.98,54417,9.75,73736.0,-9.43,-12.11,-12.65,0,*5E
1486782062.27,54418,9.75,73738.5,-9.41,-12.07,-12.65,0,*54
1486782063.54,54419,9.75,73736.3,-9.41,-12.03,-12.75,0,*50
1486782064.78,54420,9.75,73738.3,-9.39,-12.03,-12.61,0,*50
1486782066.07,54421,9.75,73736.8,-9.41,-12.07,-12.65,0,*5E
1486782067.37,54422,9.75,73736.0,-9.41,-12.07,-12.75,0,*5C
1486782068.63,54423,9.75,73736.8,-9.43,-12.07,-12.65,0,*5E
1486782069.92,54424,9.75,73738.0,-9.41,-12.07,-12.65,0,*5B
1486782071.22,54425,9.75,73736.8,-9.41,-12.07,-12.75,0,*5B
1486782072.52,54426,9.75,73740.0,-9.41,-12.07,-12.75,0,*58
1486782073.81,54427,9.75,73734.0,-9.41,-12.07,-12.65,0,*58
1486782075.1,54428,9.75,73738.5,-9.41,-12.07,-12.65,0,*57
1486782076.4,54429,9.75,73738.5,-9.41,-12.11,-12.75,0,*50
1486782077.7,54430,9.75,73740.5,-9.41,-12.07,-12.75,0,*5F
1486782079.0,54431,9.75,73738.3,-9.41,-12.07,-12.75,0,*5E
1486782080.27,54432,9.75,73736.5,-9.41,-12.03,-12.75,0,*59
1486782081.54,54433,9.75,73736.0,-9.41,-12.03,-12.75,0,*58
1486782082.8,54434,9.75,73734.0,-9.39,-11.97,-12.61,0,*5B
1486782084.06,54435,9.75,73738.8,-9.39,-11.97,-12.61,0,*5A
1486782085.3,54436,9.75,73734.5,-9.39,-12.03,-12.61,0,*57
1486782086.53,54437,9.75,73732.8,-9.39,-12.03,-12.57,0,*53
1486782087.8,54438,9.75,73738.5,-9.41,-12.03,-12.61,0,*56
1486782089.09,54439,9.75,73738.3,-9.41,-12.07,-12.61,0,*53
1486782090.33,54440,9.75,73738.0,-9.43,-12.03,-12.65,0,*5F
1486782091.63,54441,9.75,73736.3,-9.41,-12.07,-12.75,0,*59
1486782092.93,54442,9.75,73736.5,-9.41,-12.07,-12.75,0,*5A
1486782094.22,54443,9.75,73738.3,-9.41,-12.07,-12.75,0,*5B
1486782095.5,54444,9.75,73734.8,-9.41,-12.21,-12.75,0,*58
1486782096.8,54445,9.75,73736.3,-9.41,-12.11,-12.75,0,*5A
1486782098.07,54446,9.75,73736.5,-9.43,-12.11,-12.75,0,*5B
1486782099.35,54447,9.75,73738.3,-9.41,-12.21,-12.75,0,*5B
1486782100.63,54448,9.75,73738.5,-9.41,-12.25,-12.79,0,*5C
1486782101.92,54449,9.75,73738.0,-9.41,-12.35,-12.79,0,*5C
1486782103.17,54450,9.75,73738.3,-9.41,-12.39,-12.89,0,*57
1486782104.39,54451,9.75,73734.5,-9.43,-12.25,-12.89,0,*59
1486782105.67,54452,9.75,73734.5,-9.41,-12.21,-12.79,0,*53
1486782106.95,54453,9.75,73734.3,-9.41,-12.21,-12.79,0,*52
1486782108.2,54454,9.75,73736.0,-9.43,-12.21,-12.79,0,*57
1486782109.47,54455,9.75,73734.5,-9.43,-12.11,-12.79,0,*55
1486782110.77,54456,9.75,73736.3,-9.41,-12.07,-12.75,0,*5F
1486782112.03,54457,9.75,73734.8,-9.43,-12.07,-12.65,0,*5D
1486782113.32,54458,9.75,73728.5,-9.41,-12.07,-12.65,0,*50
1486782114.6,54459,9.75,73732.0,-9.43,-12.07,-12.75,0,*52
1486782115.89,54460,9.75,73730.8,-9.41,-12.07,-12.65,0,*5B
1486782117.18,54461,9.75,73730.5,-9.41,-12.07,-12.61,0,*5E
1486782118.45,54462,9.75,73730.3,-9.43,-12.07,-12.61,0,*5F
1486782119.71,54463,9.75,73730.3,-9.41,-12.03,-12.61,0,*58
1486782120.98,54464,9.75,73732.0,-9.41,-12.03,-12.53,0,*5E
1486782122.25,54465,9.75,73732.0,-9.41,-12.03,-12.53,0,*5F
1486782123.52,54466,9.75,73734.8,-9.41,-12.03,-12.61,0,*5D
1486782124.82,54467,9.75,73730.5,-9.41,-12.07,-12.53,0,*59
1486782126.06,54468,9.75,73734.8,-9.43,-12.03,-12.61,0,*51
1486782127.32,54469,9.69,73732.8,-9.41,-12.03,-12.53,0,*53
1486782128.62,54470,9.75,73734.8,-9.41,-12.07,-12.65,0,*5A
1486782129.91,54471,9.75,73734.0,-9.41,-12.07,-12.65,0,*5B
1486782131.14,54472,9.75,73736.8,-9.43,-12.03,-12.65,0,*5E
1486782132.43,54473,9.75,73736.3,-9.41,-12.07,-12.65,0,*59
1486782133.73,54474,9.75,73734.3,-9.41,-12.07,-12.65,0,*5E
1486782135.02,54475,9.75,73732.3,-9.41,-12.07,-12.65,0,*5F
1486782136.32,54476,9.75,73734.5,-9.41,-12.07,-12.75,0,*5D
1486782137.59,54477,9.75,73738.0,-9.43,-12.07,-12.75,0,*5E
1486782138.88,54478,9.75,73736.0,-9.41,-12.07,-12.65,0,*52
1486782140.15,54479,9.75,73738.0,-9.41,-12.03,-12.75,0,*56
1486782141.39,54480,9.75,73738.3,-9.43,-12.03,-12.75,0,*52
1486782142.69,54481,9.75,73736.8,-9.41,-12.07,-12.75,0,*55
1486782143.98,54482,9.75,73736.8,-9.41,-12.07,-12.65,0,*57
1486782145.28,54483,9.75,73738.3,-9.41,-12.07,-12.75,0,*57
1486782146.58,54484,9.75,73736.5,-9.41,-12.11,-12.75,0,*57
1486782147.88,54485,9.75,73736.8,-9.41,-12.11,-12.75,0,*56
1486782149.15,54486,9.75,73734.0,-9.43,-12.11,-12.75,0,*57
1486782150.43,54487,9.75,73732.5,-9.41,-12.21,-12.75,0,*57
1486782151.73,54488,9.75,73734.8,-9.41,-12.11,-12.75,0,*5B
1486782153.0,54489,9.75,73734.5,-9.43,-12.07,-12.75,0,*5F
1486782154.27,54490,9.75,73738.5,-9.41,-12.03,-12.75,0,*51
1486782155.53,54491,9.75,73732.8,-9.41,-12.03,-12.65,0,*51
1486782156.8,54492,9.75,73732.5,-9.41,-12.03,-12.61,0,*56
1486782158.06,54493,9.75,73734.0,-9.41,-12.03,-12.65,0,*53
1486782159.32,54494,9.75,73734.3,-9.41,-12.03,-12.61,0,*50
1486782160.59,54495,9.75,73734.5,-9.41,-12.03,-12.53,0,*50
1486782161.86,54496,9.75,73728.8,-9.41,-12.03,-12.65,0,*56
1486782163.12,54497,9.75,73730.5,-9.41,-12.03,-12.61,0,*53
1486782164.39,54498,9.75,73732.0,-9.41,-12.03,-12.53,0,*5D
1486782165.69,54499,9.75,73732.0,-9.41,-11.89,-12.53,0,*5D
1486782166.96,54500,9.75,73728.0,-9.41,-11.93,-12.47,0,*52
1486782168.27,54501,9.75,73732.3,-9.41,-11.93,-12.53,0,*56
1486782169.57,54502,9.69,73730.3,-9.41,-11.93,-12.53,0,*55
1486782170.87,54503,9.75,73732.8,-9.41,-11.93,-12.53,0,*54
1486782172.14,54504,9.75,73734.8,-9.41,-11.89,-12.47,0,*5D
1486782173.45,54505,9.75,73734.5,-9.41,-11.93,-12.53,0,*52
1486782174.74,54506,9.75,73734.3,-9.41,-11.93,-12.61,0,*50
1486782176.04,54507,9.75,73732.5,-9.41,-11.93,-12.61,0,*51
1486782177.31,54508,9.75,73732.0,-9.41,-12.03,-12.61,0,*54
1486782178.58,54509,9.75,73732.8,-9.41,-12.03,-12.61,0,*55
1486782179.84,54510,9.75,73732.3,-9.41,-12.03,-12.61,0,*5D
1486782181.11,54511,9.75,73732.8,-9.41,-12.03,-12.61,0,*5C
1486782182.38,54512,9.75,73734.3,-9.41,-12.03,-12.53,0,*5E
1486782183.65,54513,9.75,73732.8,-9.41,-12.03,-12.53,0,*5F
1486782184.91,54514,9.75,73732.0,-9.39,-11.97,-12.57,0,*5D
1486782186.18,54515,9.75,73732.3,-9.41,-12.03,-12.53,0,*59
1486782187.44,54516,9.75,73732.5,-9.41,-12.03,-12.61,0,*5B
1486782188.71,54517,9.75,73732.3,-9.41,-12.03,-12.61,0,*5A
1486782190.01,54518,9.75,73732.8,-9.41,-11.93,-12.61,0,*5F
1486782191.31,54519,9.75,73732.0,-9.41,-11.93,-12.61,0,*5E
1486782192.55,54520,9.75,73732.5,-9.39,-11.97,-12.47,0,*5B
1486782193.82,54521,9.75,73730.0,-9.37,-11.97,-12.47,0,*54
1486782195.08,54522,9.75,73734.3,-9.39,-11.97,-12.57,0,*58
1486782196.35,54523,9.75,73730.8,-9.37,-11.97,-12.47,0,*56
1486782197.58,54524,9.75,73726.5,-9.39,-11.97,-12.47,0,*5F
1486782198.82,54525,9.75,73726.3,-9.39,-11.97,-12.47,0,*5E
1486782200.06,54526,9.75,73724.5,-9.39,-11.89,-12.47,0,*52
1486782201.3,54527,9.75,73726.3,-9.39,-11.89,-12.47,0,*53
1486782202.54,54528,9.69,73722.5,-9.39,-11.89,-12.47,0,*5C
1486782203.78,54529,9.75,73728.5,-9.39,-11.85,-12.43,0,*55
1486782205.02,54530,9.75,73724.5,-9.39,-11.85,-12.43,0,*5D
1486782206.26,54531,9.69,73726.8,-9.39,-11.85,-12.43,0,*5C
1486782207.52,54532,9.75,73728.5,-9.39,-11.89,-12.35,0,*52
1486782208.79,54533,9.69,73724.3,-9.39,-11.85,-12.35,0,*5F
1486782210.06,54534,9.69,73726.0,-9.39,-11.85,-12.35,0,*58
1486782211.29,54535,9.69,73726.0,-9.39,-11.89,-12.47,0,*50
1486782212.56,54536,9.75,73726.0,-9.37,-11.85,-12.47,0,*51
1486782213.8,54537,9.75,73726.5,-9.39,-11.89,-12.47,0,*52
1486782215.04,54538,9.75,73730.3,-9.39,-11.89,-12.47,0,*5D
1486782216.3,54539,9.75,73724.8,-9.39,-11.89,-12.57,0,*5D
1486782217.6,54540,9.75,73724.3,-9.37,-11.89,-12.57,0,*5D
1486782218.83,54541,9.75,73724.0,-9.39,-11.97,-12.47,0,*5C
1486782220.07,54542,9.75,73726.0,-9.39,-11.97,-12.47,0,*5F
1486782221.34,54543,9.75,73730.0,-9.37,-11.97,-12.47,0,*50
1486782222.6,54544,9.69,73722.5,-9.39,-11.97,-12.57,0,*58
1486782223.9,54545,9.75,73728.0,-9.37,-11.97,-12.57,0,*57
1486782225.13,54546,9.75,73724.3,-9.39,-11.97,-12.47,0,*5B
1486782226.4,54547,9.75,73726.5,-9.39,-11.89,-12.35,0,*50
1486782227.67,54548,9.75,73726.0,-9.37,-11.89,-12.43,0,*50
1486782228.94,54549,9.75,73730.8,-9.37,-11.85,-12.43,0,*5D
1486782230.18,54550,9.75,73726.3,-9.39,-11.85,-12.43,0,*5B
1486782231.44,54551,9.75,73726.5,-9.37,-11.85,-12.43,0,*54
1486782232.68,54552,9.69,73726.5,-9.39,-11.89,-12.43,0,*55
1486782233.95,54553,9.69,73724.8,-9.39,-11.85,-12.35,0,*59
1486782235.19,54554,9.75,73726.8,-9.39,-11.85,-12.43,0,*5F
1486782236.45,54555,9.75,73728.0,-9.39,-11.89,-12.35,0,*53
1486782237.75,54556,9.69,73724.0,-9.37,-11.85,-12.35,0,*52
1486782239.05,54557,9.75,73728.0,-9.37,-11.85,-12.35,0,*53
1486782240.31,54558,9.75,73728.5,-9.37,-11.85,-12.43,0,*5D
1486782241.58,54559,9.75,73724.3,-9.37,-11.89,-12.47,0,*54
1486782242.85,54560,9.69,73724.3,-9.37,-11.89,-12.47,0,*5E
1486782244.12,54561,9.69,73728.5,-9.37,-11.89,-12.43,0,*5B
1486782245.39,54562,9.75,73728.0,-9.37,-11.89,-12.43,0,*58
1486782246.66,54563,9.69,73724.8,-9.37,-11.89,-12.43,0,*59
1486782247.93,54564,9.75,73728.8,-9.37,-11.85,-12.43,0,*52
1486782249.22,54565,9.75,73730.5,-9.37,-11.85,-12.35,0,*52
1486782250.49,54566,9.75,73728.3,-9.37,-11.89,-12.47,0,*58
1486782251.76,54567,9.75,73730.0,-9.37,-11.85,-12.47,0,*55
1486782253.0,54568,9.69,73724.5,-9.39,-11.89,-12.47,0,*58
1486782254.26,54569,9.75,73730.3,-9.37,-11.89,-12.43,0,*53
1486782255.53,54570,9.75,73730.8,-9.37,-11.89,-12.47,0,*5F
1486782256.8,54571,9.75,73734.3,-9.37,-11.89,-12.47,0,*5E
1486782258.07,54572,9.75,73732.8,-9.37,-11.89,-12.43,0,*59
1486782259.34,54573,9.75,73734.0,-9.37,-11.85,-12.47,0,*50
1486782260.61,54574,9.75,73732.0,-9.37,-11.89,-12.43,0,*5F
1486782261.88,54575,9.75,73734.0,-9.37,-11.89,-12.43,0,*5E
1486782263.14,54576,9.75,73734.8,-9.37,-11.89,-12.47,0,*59
1486782264.39,54577,9.69,73730.3,-9.35,-11.93,-12.43,0,*55
1486782265.64,54578,9.69,73730.0,-9.35,-11.93,-12.43,0,*5A
1486782266.88,54579,9.69,73730.3,-9.35,-11.97,-12.43,0,*5F
1486782268.16,54580,9.75,73730.0,-9.35,-11.93,-12.53,0,*5C
1486782269.43,54581,9.75,73734.0,-9.35,-11.93,-12.53,0,*5D
1486782270.72,54582,9.69,73730.5,-9.37,-11.97,-12.57,0,*5C
1486782271.97,54583,9.75,73728.8,-9.35,-11.93,-12.43,0,*5E
1486782273.25,54584,9.75,73728.3,-9.35,-11.93,-12.53,0,*58
1486782274.52,54585,9.69,73728.8,-9.35,-11.93,-12.53,0,*59
1486782275.76,54586,9.75,73734.3,-9.35,-11.97,-12.43,0,*5F
1486782277.03,54587,9.75,73728.5,-9.35,-11.97,-12.53,0,*5F
1486782278.33,54588,9.75,73734.5,-9.37,-11.97,-12.57,0,*56
1486782279.6,54589,9.75,73732.8,-9.33,-11.93,-12.43,0,*52
1486782280.87,54590,9.75,73730.5,-9.33,-11.93,-12.43,0,*5A
1486782282.14,54591,9.75,73732.3,-9.35,-11.93,-12.53,0,*5C
1486782283.42,54592,9.75,73734.0,-9.35,-11.93,-12.53,0,*5F
1486782284.67,54593,9.75,73736.0,-9.35,-11.93,-12.43,0,*5F
1486782285.94,54594,9.75,73734.5,-9.35,-11.93,-12.53,0,*59
1486782287.18,54595,9.69,73732.3,-9.35,-11.97,-12.43,0,*5D
1486782288.43,54596,9.75,73734.0,-9.37,-12.03,-12.47,0,*56
1486782289.7,54597,9.75,73736.8,-9.35,-11.93,-12.53,0,*5A
1486782290.95,54598,9.75,73734.3,-9.35,-11.93,-12.43,0,*54
1486782292.19,54599,9.75,73736.0,-9.35,-11.85,-12.43,0,*52
1486782293.43,54600,9.75,73736.0,-9.35,-11.85,-12.43,0,*51
1486782294.67,54601,9.75,73732.8,-9.35,-11.85,-12.43,0,*50
1486782295.94,54602,9.75,73736.5,-9.35,-11.85,-12.53,0,*52
1486782297.21,54603,9.69,73734.5,-9.35,-11.85,-12.53,0,*53
1486782298.48,54604,9.75,73736.8,-9.35,-11.93,-12.53,0,*53
1486782299.76,54605,9.75,73734.3,-9.35,-11.93,-12.53,0,*52
1486782301.04,54606,9.75,73734.0,-9.35,-11.93,-12.53,0,*51
1486782302.28,54607,9.75,73732.3,-9.35,-11.93,-12.43,0,*51
1486782303.56,54608,9.75,73732.8,-9.35,-11.93,-12.53,0,*5F
1486782304.81,54609,9.75,73738.0,-9.35,-11.93,-12.43,0,*5F
1486782306.05,54610,9.75,73738.0,-9.35,-11.93,-12.43,0,*57
1486782307.3,54611,9.69,73732.3,-9.35,-11.93,-12.43,0,*56
1486782308.55,54612,9.75,73732.3,-9.35,-11.93,-12.43,0,*55
1486782309.82,54613,9.75,73732.5,-9.35,-11.93,-12.53,0,*55
1486782311.09,54614,9.75,73730.8,-9.39,-11.97,-12.57,0,*5E
1486782312.36,54615,9.75,73732.5,-9.37,-11.89,-12.47,0,*5F
1486782313.6,54616,9.75,73732.5,-9.35,-11.93,-12.43,0,*51
1486782314.87,54617,9.75,73732.0,-9.37,-11.97,-12.47,0,*52
1486782316.14,54618,9.75,73732.5,-9.33,-11.93,-12.43,0,*59
1486782317.39,54619,9.75,73734.5,-9.35,-11.93,-12.43,0,*5E
1486782318.63,54620,9.69,73734.3,-9.35,-11.85,-12.39,0,*5E
1486782319.88,54621,9.75,73732.3,-9.35,-11.85,-12.29,0,*5E
1486782321.12,54622,9.75,73738.3,-9.35,-11.85,-12.39,0,*5C
1486782322.36,54623,9.75,73738.0,-9.35,-11.85,-12.43,0,*50
1486782323.63,54624,9.75,73738.0,-9.33,-11.93,-12.43,0,*56
1486782324.88,54625,9.69,73736.0,-9.35,-11.93,-12.43,0,*51
1486782326.13,54626,9.75,73740.3,-9.35,-11.93,-12.43,0,*52
1486782327.38,54627,9.75,73736.3,-9.35,-11.93,-12.43,0,*53
1486782328.65,54628,9.69,73738.0,-9.35,-11.85,-12.53,0,*5A
1486782329.91,54629,9.69,73736.0,-9.35,-11.85,-12.53,0,*5B
1486782331.19,54630,9.69,73736.0,-9.35,-11.93,-12.53,0,*54
1486782332.49,54631,9.69,73738.0,-9.33,-11.93,-12.53,0,*53
1486782333.76,54632,9.75,73740.0,-9.35,-11.93,-12.53,0,*56
1486782335.03,54633,9.75,73738.0,-9.35,-11.93,-12.57,0,*53
1486782336.31,54634,9.75,73738.5,-9.35,-11.93,-12.57,0,*54
1486782337.57,54635,9.75,73736.5,-9.35,-11.97,-12.53,0,*55
1486782338.85,54636,9.75,73738.3,-9.35,-11.93,-12.53,0,*52
1486782340.15,54637,9.75,73736.0,-9.33,-11.93,-12.57,0,*51
1486782341.42,54638,9.75,73736.0,-9.35,-11.93,-12.53,0,*5C
1486782342.69,54639,9.75,73738.3,-9.33,-11.97,-12.43,0,*5E
1486782343.96,54640,9.75,73736.3,-9.35,-11.93,-12.57,0,*57
1486782345.23,54641,9.69,73734.8,-9.35,-11.93,-12.53,0,*52
1486782346.49,54642,9.75,73738.3,-9.35,-11.97,-12.65,0,*50
1486782347.8,54643,9.75,73738.3,-9.33,-11.93,-12.53,0,*56
1486782349.06,54644,9.75,73736.0,-9.35,-11.97,-12.57,0,*57
1486782350.36,54645,9.75,73732.8,-9.33,-11.93,-12.53,0,*50
1486782351.63,54646,9.75,73738.3,-9.35,-11.93,-12.53,0,*55
1486782352.88,54647,9.69,73734.0,-9.35,-11.97,-12.43,0,*51
1486782354.17,54648,9.75,73738.8,-9.33,-11.97,-12.53,0,*59
1486782355.44,54649,9.69,73734.0,-9.35,-11.93,-12.53,0,*5A
1486782356.71,54650,9.75,73738.5,-9.35,-11.97,-12.53,0,*56
1486782357.96,54651,9.75,73740.0,-9.35,-11.93,-12.43,0,*52
1486782359.23,54652,9.75,73736.0,-9.35,-11.97,-12.53,0,*54
1486782360.47,54653,9.75,73738.8,-9.35,-12.03,-12.53,0,*5B
1486782361.74,54654,9.75,73740.3,-9.35,-11.97,-12.57,0,*56
1486782362.98,54655,9.75,73738.5,-9.35,-11.93,-12.43,0,*56
1486782364.26,54656,9.75,73742.3,-9.33,-11.93,-12.39,0,*5E
1486782365.53,54657,9.69,73736.3,-9.35,-11.93,-12.57,0,*51
1486782366.79,54658,9.75,73740.8,-9.35,-11.97,-12.57,0,*5A
1486782368.06,54659,9.75,73742.0,-9.35,-11.97,-12.65,0,*5A
1486782369.32,54660,9.69,73740.3,-9.35,-11.97,-12.57,0,*51
1486782370.59,54661,9.75,73742.0,-9.35,-11.93,-12.57,0,*54
1486782371.83,54662,9.69,73742.3,-9.35,-12.03,-12.57,0,*5D
1486782373.12,54663,9.75,73740.0,-9.33,-11.97,-12.57,0,*54
1486782374.41,54664,9.69,73738.5,-9.33,-11.97,-12.65,0,*52
1486782375.67,54665,9.75,73740.0,-9.35,-11.97,-12.65,0,*55
1486782376.94,54666,9.69,73736.5,-9.35,-11.93,-12.65,0,*52
1486782378.17,54667,9.69,73740.0,-9.35,-12.03,-12.65,0,*59
1486782379.44,54668,9.69,73742.0,-9.35,-12.11,-12.65,0,*55
1486782380.67,54669,9.69,73742.0,-9.35,-12.03,-12.65,0,*57
1486782381.94,54670,9.69,73740.8,-9.35,-12.11,-12.65,0,*5C
1486782383.17,54671,9.69,73738.3,-9.35,-12.03,-12.65,0,*5E
1486782384.41,54672,9.69,73738.0,-9.35,-12.03,-12.65,0,*5D
1486782385.64,54673,9.69,73740.5,-9.35,-12.03,-12.65,0,*5C
1486782386.91,54674,9.69,73736.8,-9.35,-11.97,-12.57,0,*54
1486782388.15,54675,9.69,73740.3,-9.35,-12.03,-12.57,0,*5B
1486782389.38,54676,9.69,73736.5,-9.35,-12.03,-12.65,0,*59
1486782390.64,54677,9.69,73738.3,-9.33,-12.03,-12.65,0,*5E
1486782391.91,54678,9.69,73734.3,-9.35,-11.97,-12.57,0,*58
1486782393.18,54679,9.75,73736.0,-9.35,-11.93,-12.57,0,*5D
1486782394.45,54680,9.69,73736.5,-9.35,-11.93,-12.57,0,*5B
1486782395.71,54681,9.75,73742.5,-9.35,-11.97,-12.65,0,*5F
1486782396.98,54682,9.75,73736.3,-9.35,-11.97,-12.53,0,*59
1486782398.26,54683,9.75,73736.8,-9.35,-11.93,-12.53,0,*5C
1486782399.53,54684,9.75,73740.3,-9.35,-11.93,-12.53,0,*5B
1486782400.78,54685,9.75,73738.3,-9.35,-11.93,-12.43,0,*5B
1486782402.05,54686,9.75,73742.8,-9.35,-11.97,-12.53,0,*5D
1486782403.3,54687,9.69,73738.5,-9.35,-11.93,-12.43,0,*59
1486782404.59,54688,9.69,73738.3,-9.33,-11.97,-12.53,0,*55
1486782405.85,54689,9.75,73742.5,-9.35,-11.97,-12.57,0,*56
1486782407.12,54690,9.69,73738.5,-9.37,-12.03,-12.57,0,*52
1486782408.39,54691,9.69,73732.8,-9.35,-11.93,-12.53,0,*5F
1486782409.66,54692,9.69,73738.3,-9.35,-11.97,-12.53,0,*58
1486782410.92,54693,9.75,73738.0,-9.35,-11.97,-12.65,0,*5C
1486782412.2,54694,9.69,73736.8,-9.35,-11.93,-12.57,0,*5E
1486782413.43,54695,9.69,73736.3,-9.35,-12.03,-12.57,0,*55
1486782414.7,54696,9.69,73738.0,-9.35,-11.97,-12.65,0,*59
1486782415.96,54697,9.75,73738.0,-9.35,-11.97,-12.57,0,*59
1486782417.2,54698,9.69,73738.3,-9.35,-12.03,-12.57,0,*58
1486782418.44,54699,9.69,73736.3,-9.35,-12.03,-12.57,0,*59
1486782419.71,54700,9.75,73738.8,-9.35,-11.97,-12.57,0,*56
1486782420.97,54701,9.75,73736.5,-9.35,-11.97,-12.65,0,*56
1486782422.25,54702,9.75,73736.0,-9.33,-11.97,-12.65,0,*53
1486782423.52,54703,9.69,73732.0,-9.35,-11.97,-12.57,0,*55
1486782424.75,54704,9.69,73732.0,-9.39,-12.03,-12.61,0,*55
1486782426.03,54705,9.69,73734.0,-9.35,-11.93,-12.57,0,*57
1486782427.26,54706,9.75,73736.8,-9.35,-12.03,-12.65,0,*5F
1486782428.52,54707,9.69,73730.0,-9.39,-11.97,-12.61,0,*58
1486782429.82,54708,9.69,73734.3,-9.37,-12.07,-12.61,0,*53
1486782431.06,54709,9.69,73728.0,-9.35,-12.03,-12.57,0,*51
1486782432.35,54710,9.75,73732.8,-9.37,-12.15,-12.71,0,*58
1486782433.62,54711,9.69,73728.8,-9.35,-12.11,-12.65,0,*5A
1486782434.91,54712,9.69,73728.5,-9.37,-12.15,-12.61,0,*5B
1486782436.21,54713,9.69,73730.0,-9.37,-12.15,-12.71,0,*5B
1486782437.51,54714,9.69,73734.3,-9.37,-12.07,-12.71,0,*5F
1486782438.75,54715,9.75,73734.3,-9.35,-12.03,-12.65,0,*5D
1486782440.04,54716,9.75,73732.0,-9.37,-12.15,-12.61,0,*5F
1486782441.34,54717,9.69,73732.0,-9.37,-12.07,-12.71,0,*5C
1486782442.63,54718,9.75,73734.5,-9.37,-12.07,-12.61,0,*52
1486782443.9,54719,9.69,73732.8,-9.37,-12.03,-12.61,0,*57
1486782445.17,54720,9.69,73730.0,-9.37,-12.03,-12.71,0,*5C
1486782446.44,54721,9.69,73728.5,-9.37,-12.03,-12.61,0,*5C
1486782447.7,54722,9.69,73728.0,-9.37,-12.03,-12.61,0,*5F
1486782448.97,54723,9.69,73732.5,-9.37,-12.03,-12.71,0,*5F
1486782450.27,54724,9.69,73728.0,-9.37,-12.15,-12.61,0,*5E
1486782451.56,54725,9.69,73730.3,-9.37,-12.07,-12.61,0,*5C
1486782452.85,54726,9.69,73730.8,-9.37,-12.07,-12.61,0,*5F
1486782454.15,54727,9.69,73732.8,-9.37,-12.07,-12.61,0,*5E
1486782455.45,54728,9.69,73732.8,-9.37,-12.07,-12.71,0,*50
1486782456.72,54729,9.75,73734.5,-9.37,-12.03,-12.71,0,*55
1486782457.95,54730,9.69,73730.3,-9.39,-12.03,-12.61,0,*52
1486782459.23,54731,9.69,73734.5,-9.37,-12.03,-12.71,0,*5C
1486782460.53,54732,9.69,73734.5,-9.37,-12.15,-12.71,0,*58
1486782461.82,54733,9.69,73732.5,-9.37,-12.07,-12.61,0,*5B
1486782463.08,54734,9.69,73732.0,-9.37,-12.03,-12.61,0,*58
1486782464.35,54735,9.69,73734.0,-9.39,-12.07,-12.61,0,*53
1486782465.64,54736,9.75,73736.0,-9.37,-12.07,-12.61,0,*5E
1486782466.93,54737,9.69,73734.8,-9.37,-12.07,-12.61,0,*5F
1486782468.2,54738,9.69,73728.3,-9.39,-12.15,-12.61,0,*5D
1486782469.46,54739,9.69,73732.0,-9.39,-12.07,-12.61,0,*5F
1486782470.73,54740,9.69,73732.5,-9.39,-12.07,-12.61,0,*51
1486782472.02,54741,9.69,73732.8,-9.37,-12.07,-12.61,0,*5E
1486782473.29,54742,9.69,73734.5,-9.37,-12.03,-12.71,0,*58
1486782474.56,54743,9.75,73736.8,-9.39,-12.07,-12.61,0,*52
1486782475.86,54744,9.69,73734.0,-9.37,-12.07,-12.71,0,*5A
1486782477.12,54745,9.69,73734.3,-9.39,-12.15,-12.61,0,*57
1486782478.42,54746,9.75,73736.8,-9.37,-12.15,-12.71,0,*5B
1486782479.67,54747,9.69,73736.5,-9.39,-12.21,-12.71,0,*53
1486782480.94,54748,9.69,73734.0,-9.39,-12.07,-12.71,0,*58
1486782482.21,54749,9.75,73738.5,-9.39,-12.07,-12.71,0,*59
1486782483.48,54750,9.69,73734.3,-9.39,-12.15,-12.71,0,*52
1486782484.78,54751,9.69,73732.8,-9.37,-12.07,-12.61,0,*5F
1486782486.04,54752,9.69,73732.0,-9.39,-12.07,-12.61,0,*52
1486782487.28,54753,9.69,73732.3,-9.39,-12.03,-12.71,0,*56
1486782488.57,54754,9.69,73732.5,-9.37,-12.07,-12.61,0,*5A
1486782489.87,54755,9.75,73736.8,-9.37,-12.07,-12.61,0,*5B
1486782491.13,54756,9.69,73734.5,-9.37,-12.03,-12.61,0,*5C
1486782492.4,54757,9.69,73734.8,-9.37,-12.03,-12.61,0,*5D
1486782493.7,54758,9.69,73732.5,-9.37,-12.15,-12.71,0,*54
1486782494.97,54759,9.69,73738.3,-9.39,-12.07,-12.71,0,*58
1486782496.24,54760,9.69,73734.5,-9.39,-12.15,-12.71,0,*51
1486782497.5,54761,9.69,73734.3,-9.39,-12.15,-12.61,0,*51
1486782498.77,54762,9.69,73734.8,-9.39,-12.07,-12.71,0,*50
1486782500.07,54763,9.69,73732.8,-9.37,-12.15,-12.71,0,*5C
1486782501.37,54764,9.69,73736.0,-9.37,-12.15,-12.71,0,*5B
1486782502.64,54765,9.69,73736.5,-9.39,-12.07,-12.71,0,*57
1486782503.91,54766,9.69,73734.5,-9.39,-12.15,-12.71,0,*57
1486782505.18,54767,9.69,73738.5,-9.39,-12.15,-12.71,0,*56
1486782506.46,54768,9.69,73732.8,-9.39,-12.15,-12.71,0,*59
1486782507.73,54769,9.69,73738.0,-9.39,-12.15,-12.71,0,*58
1486782508.99,54770,9.69,73734.0,-9.39,-12.15,-12.61,0,*51
1486782510.25,54771,9.69,73736.5,-9.39,-12.07,-12.61,0,*53
1486782511.52,54772,9.69,73732.3,-9.39,-12.07,-12.61,0,*50
1486782512.79,54773,9.69,73734.8,-9.39,-12.07,-12.71,0,*50
1486782514.06,54774,9.69,73728.8,-9.39,-12.15,-12.71,0,*54
1486782515.33,54775,9.69,73736.3,-9.39,-12.07,-12.71,0,*56
1486782516.59,54776,9.69,73732.8,-9.39,-12.07,-12.61,0,*54